Date String (YYYY-MM-DD hh:mm:ss) UTC,Instrument flags,absolute air pressure of the measurement (hPa),sample flow rate (lpm),inlet stack bypass flow (lpm),air temperature of the measurement (°C),ambient temperature measured by the external sensor (°C),aerosol sample conditioner tube jacket temperature (°C),OPC LED temperature (°C),internal box temperature (°C),relative humidity of the measurement (%),span deviation,mass concentration of particles derived from Lorenz-Mie calculation of OPC scattering (μg/m³),mass concentration of particles derived from Lorenz-Mie calculation of OPC scattering (μg/m³),mass concentration of particles derived from Lorenz-Mie calculation of OPC scattering (μg/m³)
DateTimeUTC,F1_M11,P_M11,Q1_M11,Q2_M11,T1_M11,T2_M11,T3_M11,T4_M11,T5_M11,U1_M11,ZSPAN_M11,X2_M11,X0_M11,X1_M11
2023-11-16 21:00:00,SystemResetWarning,0823.6,5.00,000.00,027.9,026.8,000.0,036.2,029.4,14.9,0000.0,0001.37,0008.75,0000.47
2023-11-16 21:01:00,SystemResetWarning,0823.4,5.00,000.00,027.9,026.8,000.0,036.2,029.3,14.8,0000.0,0001.24,0008.26,0000.47
2023-11-16 21:02:00,SystemResetWarning,0823.3,5.02,000.00,027.9,026.9,000.0,036.2,029.4,14.7,0000.0,0001.25,0007.68,0000.47
2023-11-16 21:03:00,SystemResetWarning,0823.4,5.00,000.00,027.9,026.9,000.0,036.3,029.3,14.7,0000.0,0001.24,0007.81,0000.48
2023-11-16 21:04:00,SystemResetWarning,0823.6,4.99,000.00,027.9,026.9,000.0,036.3,029.3,14.9,0000.0,0001.16,0007.63,0000.48
2023-11-16 21:05:00,SystemResetWarning,0823.6,4.99,000.00,027.9,026.9,000.0,036.3,029.3,15.0,0000.0,0001.05,0006.05,0000.48
2023-11-16 21:06:00,SystemResetWarning,0823.3,5.00,000.00,027.9,026.9,000.0,036.3,029.3,14.8,0000.0,0001.03,0005.14,0000.49
2023-11-16 21:07:00,SystemResetWarning,0823.3,5.01,000.00,027.9,026.9,000.0,036.3,029.3,14.6,0000.0,0001.13,0005.80,0000.50
2023-11-16 21:08:00,SystemResetWarning,0823.5,5.01,000.00,027.9,026.9,000.0,036.3,029.4,14.7,0000.0,0001.21,0005.42,0000.50
2023-11-16 21:09:00,SystemResetWarning,0823.6,5.00,000.00,027.9,026.9,000.0,036.3,029.3,14.7,0000.0,0001.25,0005.47,0000.50
2023-11-16 21:10:00,SystemResetWarning,0823.6,5.00,000.00,027.9,026.9,000.0,036.3,029.3,14.9,0000.0,0001.22,0004.80,0000.50
2023-11-16 21:11:00,SystemResetWarning,0823.7,5.00,000.00,027.9,026.9,000.0,036.3,029.4,15.0,0000.0,0001.19,0004.20,0000.49
2023-11-16 21:12:00,SystemResetWarning,0823.6,5.00,000.00,027.9,026.9,000.0,036.3,029.4,15.0,0000.0,0001.18,0004.67,0000.48
2023-11-16 21:13:00,SystemResetWarning,0823.6,5.00,000.00,027.9,026.9,000.0,036.3,029.4,15.0,0000.0,0001.24,0007.88,0000.50
2023-11-16 21:14:00,SystemResetWarning,0823.6,4.99,000.00,027.9,026.9,000.0,036.3,029.4,15.0,0000.0,0001.30,0007.94,0000.51
2023-11-16 21:15:00,SystemResetWarning,0823.6,4.99,000.00,028.0,026.9,000.0,036.3,029.4,15.0,0000.0,0001.37,0008.23,0000.50
2023-11-16 21:16:00,SystemResetWarning,0823.7,5.00,000.00,028.0,026.9,000.0,036.3,029.4,15.0,0000.0,0001.39,0008.31,0000.50
2023-11-16 21:17:00,SystemResetWarning,0823.6,4.99,000.00,028.0,026.9,000.0,036.3,029.4,15.1,0000.0,0001.37,0008.92,0000.49
2023-11-16 21:18:00,SystemResetWarning,0823.5,5.02,000.00,028.0,026.9,000.0,036.3,029.4,14.9,0000.0,0001.31,0008.62,0000.49
2023-11-16 21:19:00,SystemResetWarning,0823.5,5.00,000.00,028.0,026.9,000.0,036.3,029.4,15.0,0000.0,0001.19,0008.42,0000.48
2023-11-16 21:20:00,SystemResetWarning,0823.5,5.00,000.00,028.0,026.9,000.0,036.3,029.4,15.0,0000.0,0001.17,0008.36,0000.47
2023-11-16 21:21:00,SystemResetWarning,0823.4,5.00,000.00,028.0,026.9,000.0,036.3,029.4,14.9,0000.0,0001.14,0008.65,0000.47
2023-11-16 21:22:00,SystemResetWarning,0823.4,5.00,000.00,028.0,027.0,000.0,036.3,029.4,14.8,0000.0,0001.14,0009.17,0000.48
2023-11-16 21:23:00,SystemResetWarning,0823.3,4.99,000.00,028.0,027.0,000.0,036.3,029.4,14.6,0000.0,0001.16,0008.57,0000.49
2023-11-16 21:24:00,SystemResetWarning,0823.5,5.00,000.00,028.0,027.0,000.0,036.3,029.4,14.6,0000.0,0001.12,0007.78,0000.48
2023-11-16 21:25:00,SystemResetWarning,0823.5,5.02,000.00,028.0,027.0,000.0,036.3,029.4,14.6,0000.0,0001.04,0008.27,0000.48
2023-11-16 21:26:00,SystemResetWarning,0823.4,5.00,000.00,028.0,027.0,000.0,036.3,029.4,14.5,0000.0,0000.97,0008.89,0000.47
2023-11-16 21:27:00,SystemResetWarning,0823.5,4.99,000.00,028.0,027.0,000.0,036.3,029.4,14.5,0000.0,0000.96,0009.04,0000.47
2023-11-16 21:28:00,SystemResetWarning,0823.6,4.99,000.00,028.0,027.0,000.0,036.3,029.4,14.5,0000.0,0000.98,0008.67,0000.47
2023-11-16 21:29:00,SystemResetWarning,0823.6,5.00,000.00,028.0,026.9,000.0,036.3,029.4,14.4,0000.0,0001.06,0009.58,0000.47
2023-11-16 21:30:00,SystemResetWarning,0823.8,5.01,000.00,028.0,026.9,000.0,036.3,029.4,14.4,0000.0,0001.25,0010.68,0000.49
2023-11-16 21:31:00,SystemResetWarning,0823.8,5.00,000.00,028.0,026.9,000.0,036.3,029.4,14.6,0000.0,0001.37,0011.74,0000.50
2023-11-16 21:32:00,SystemResetWarning,0823.8,5.00,000.00,028.0,026.9,000.0,036.3,029.4,14.6,0000.0,0001.42,0011.61,0000.50
2023-11-16 21:33:00,SystemResetWarning,0823.9,4.99,000.00,028.0,026.9,000.0,036.3,029.4,14.5,0000.0,0001.44,0011.08,0000.50
2023-11-16 21:34:00,SystemResetWarning,0823.9,4.99,000.00,028.0,026.9,000.0,036.3,029.4,14.5,0000.0,0001.45,0011.13,0000.50
2023-11-16 21:35:00,SystemResetWarning,0823.9,5.00,000.00,028.0,026.9,000.0,036.3,029.4,14.6,0000.0,0001.52,0010.81,0000.49
2023-11-16 21:36:00,SystemResetWarning,0824.0,5.01,000.00,028.0,026.9,000.0,036.3,029.4,14.6,0000.0,0001.53,0009.92,0000.49
2023-11-16 21:37:00,SystemResetWarning,0824.0,5.00,000.00,028.0,026.9,000.0,036.3,029.4,14.7,0000.0,0001.52,0009.57,0000.49
2023-11-16 21:38:00,SystemResetWarning,0824.0,4.99,000.00,028.0,026.9,000.0,036.3,029.4,14.6,0000.0,0001.54,0009.28,0000.50
2023-11-16 21:39:00,SystemResetWarning,0824.0,4.99,000.00,028.0,026.9,000.0,036.4,029.4,14.6,0000.0,0001.51,0009.09,0000.51
2023-11-16 21:40:00,SystemResetWarning,0823.8,5.00,000.00,028.0,026.9,000.0,036.4,029.4,14.7,0000.0,0001.44,0008.42,0000.51
2023-11-16 21:41:00,SystemResetWarning,0824.0,5.01,000.00,028.0,027.0,000.0,036.4,029.4,14.8,0000.0,0001.26,0007.22,0000.50
2023-11-16 21:42:00,SystemResetWarning,0824.0,5.00,000.00,028.0,027.0,000.0,036.4,029.4,14.6,0000.0,0001.07,0005.78,0000.48
2023-11-16 21:43:00,SystemResetWarning,0824.2,4.99,000.00,028.0,027.0,000.0,036.4,029.3,15.0,0000.0,0001.01,0005.62,0000.48
2023-11-16 21:44:00,SystemResetWarning,0824.3,4.99,000.00,028.0,026.9,000.0,036.4,029.3,15.0,0000.0,0000.99,0005.61,0000.48
2023-11-16 21:45:00,SystemResetWarning,0824.3,5.01,000.00,028.0,026.9,000.0,036.4,029.3,15.2,0000.0,0000.95,0005.58,0000.47
2023-11-16 21:46:00,SystemResetWarning,0824.3,5.01,000.00,028.0,026.9,000.0,036.4,029.4,15.5,0000.0,0000.85,0005.35,0000.46
2023-11-16 21:47:00,SystemResetWarning,0824.3,5.00,000.00,028.0,026.9,000.0,036.4,029.4,15.9,0000.0,0000.78,0004.53,0000.45
2023-11-16 21:48:00,SystemResetWarning,0824.3,4.98,000.00,027.9,026.9,000.0,036.4,029.4,16.1,0000.0,0000.82,0004.27,0000.44
2023-11-16 21:49:00,SystemResetWarning,0824.3,4.99,000.00,027.9,026.9,000.0,036.4,029.4,16.1,0000.0,0000.88,0003.97,0000.43
2023-11-16 21:50:00,SystemResetWarning,0824.1,5.01,000.00,027.9,026.9,000.0,036.4,029.4,16.0,0000.0,0000.90,0003.97,0000.42
2023-11-16 21:51:00,SystemResetWarning,0824.2,5.00,000.00,027.9,026.9,000.0,036.4,029.4,16.0,0000.0,0000.88,0003.92,0000.40
2023-11-16 21:52:00,SystemResetWarning,0824.2,4.99,000.00,027.9,026.9,000.0,036.4,029.4,16.1,0000.0,0000.92,0004.11,0000.40
2023-11-16 21:53:00,SystemResetWarning,0824.1,4.99,000.00,027.9,026.9,000.0,036.4,029.4,15.8,0000.0,0000.92,0004.41,0000.39
2023-11-16 21:54:00,SystemResetWarning,0824.0,5.01,000.00,027.9,026.9,000.0,036.4,029.4,15.9,0000.0,0000.91,0004.39,0000.39
2023-11-16 21:55:00,SystemResetWarning,0824.0,5.01,000.00,027.9,026.9,000.0,036.4,029.3,15.7,0000.0,0001.00,0005.92,0000.38
2023-11-16 21:56:00,SystemResetWarning,0824.1,5.00,000.00,027.9,026.9,000.0,036.4,029.3,15.7,0000.0,0001.06,0006.20,0000.39
2023-11-16 21:57:00,SystemResetWarning,0824.2,5.01,000.00,027.9,026.9,000.0,036.4,029.3,15.8,0000.0,0001.05,0006.37,0000.38
2023-11-16 21:58:00,SystemResetWarning,0824.1,5.00,000.00,027.9,026.9,000.0,036.3,029.3,15.9,0000.0,0001.07,0007.49,0000.38
2023-11-16 21:59:00,SystemResetWarning,0824.1,4.99,000.00,027.9,026.9,000.0,036.3,029.3,15.6,0000.0,0001.05,0007.47,0000.38
